GW3780 Weather Reports


Display with metric or nautical units.
time (UTC)temp
F
wind
direction
speed
MPH
gust
MPH
rain 1hr
in
rain 24hr
in
rain mn
in
humidity
%
barometer
mb
20260904170924 93 350 2.0 2.0 0.00 0.00 0.00 61 1015.3
20260904170419 92 276 0.0 2.0 0.00 0.00 0.00 61 1015.3
20260904165914 93 290 1.0 2.0 0.00 0.00 0.00 62 1015.6
20260904165413 92 299 2.0 3.0 0.00 0.00 0.00 62 1015.5
20260904164913 92 300 2.0 3.0 0.00 0.00 0.00 63 1015.6
20260904164413 92 180 0.0 3.0 0.00 0.00 0.00 64 1015.4
20260904163909 92 288 1.0 2.0 0.00 0.00 0.00 65 1015.5
20260904163409 92 306 2.0 3.0 0.00 0.00 0.00 64 1015.6
20260904162908 91 57 0.0 2.0 0.00 0.00 0.00 64 1015.7
20260904162403 91 298 0.0 4.0 0.00 0.00 0.00 64 1015.9
20260904161853 91 294 2.0 7.0 0.00 0.00 0.00 65 1015.7
20260904161348 91 328 2.0 2.0 0.00 0.00 0.00 63 1015.9
20260904160844 92 346 0.0 2.0 0.00 0.00 0.00 63 1016.1
20260904160338 91 296 0.0 2.0 0.00 0.00 0.00 64 1015.7
20260904155833 91 299 2.0 3.0 0.00 0.00 0.00 65 1015.9
20260904155328 91 318 2.0 3.0 0.00 0.00 0.00 65 1015.9
20260904154826 91 6 1.0 3.0 0.00 0.00 0.00 64 1016.2
20260904154321 91 24 3.0 3.0 0.00 0.00 0.00 64 1016.2
20260904153818 91 294 2.0 3.0 0.00 0.00 0.00 66 1016.3
20260904153313 91 307 1.0 3.0 0.00 0.00 0.00 67 1016.2
20260904152809 91 312 2.0 3.0 0.00 0.00 0.00 67 1016.1
20260904152306 90 295 0.0 2.0 0.00 0.00 0.00 67 1016.2
20260904151759 90 291 1.0 3.0 0.00 0.00 0.00 68 1015.8
20260904151257 90 300 2.0 3.0 0.00 0.00 0.00 71 1016.2
20260904150754 89 9 2.0 4.0 0.00 0.00 0.00 69 1016.2
20260904150248 89 303 2.0 3.0 0.00 0.00 0.00 73 1016.1
20260904145746 89 275 0.0 2.0 0.00 0.00 0.00 74 1016.3
20260904145242 88 214 2.0 2.0 0.00 0.00 0.00 74 1016.1
20260904144737 88 205 0.0 2.0 0.00 0.00 0.00 75 1016.2
20260904144233 88 278 1.0 2.0 0.00 0.00 0.00 75 1015.9
20260904143728 88 224 0.0 1.0 0.00 0.00 0.00 74 1015.9
20260904143225 87 269 0.0 3.0 0.00 0.00 0.00 75 1015.9
20260904142721 87 291 0.0 1.0 0.00 0.00 0.00 76 1015.9
20260904142218 87 229 0.0 2.0 0.00 0.00 0.00 76 1015.8
20260904141717 86 290 1.0 3.0 0.00 0.00 0.00 77 1015.9
20260904141213 86 316 1.0 2.0 0.00 0.00 0.00 78 1015.8
20260904140708 86 256 0.0 2.0 0.00 0.00 0.00 78 1015.6
20260904140203 86 230 0.0 2.0 0.00 0.00 0.00 78 1016.2
20260904135702 85 297 0.0 1.0 0.00 0.00 0.00 78 1015.9
20260904135158 85 291 1.0 2.0 0.00 0.00 0.00 79 1015.8
20260904134653 85 166 1.0 1.0 0.00 0.00 0.00 79 1015.9
20260904134152 84 205 0.0 2.0 0.00 0.00 0.00 79 1015.8
20260904133648 85 326 0.0 3.0 0.00 0.00 0.00 80 1015.8
20260904133144 84 302 0.0 2.0 0.00 0.00 0.00 80 1015.4
20260904132643 85 315 0.0 1.0 0.00 0.00 0.00 79 1015.6
20260904132138 84 300 1.0 1.0 0.00 0.00 0.00 79 1015.6
20260904131637 84 307 1.0 2.0 0.00 0.00 0.00 81 1015.5
20260904131133 83 302 1.0 2.0 0.00 0.00 0.00 81 1015.8
20260904130632 83 212 0.0 3.0 0.00 0.00 0.00 81 1015.6
20260904130127 83 269 0.0 0.0 0.00 0.00 0.00 82 1015.6
20260904125624 82 0 0.0 2.0 0.00 0.00 0.00 82 1015.7
20260904125119 82 217 1.0 2.0 0.00 0.00 0.00 81 1015.7
20260904124614 82 262 0.0 2.0 0.00 0.00 0.00 82 1015.7
20260904124110 81 196 1.0 3.0 0.00 0.00 0.00 83 1015.9
20260904123609 80 207 2.0 2.0 0.00 0.00 0.00 85 1015.9
20260904123106 80 304 0.0 1.0 0.00 0.00 0.00 86 1015.8
20260904122600 80 207 0.0 2.0 0.00 0.00 0.00 85 1015.7
20260904122055 80 311 1.0 1.0 0.00 0.00 0.00 87 1015.5
20260904121550 80 218 0.0 2.0 0.00 0.00 0.00 86 1015.7
20260904121046 80 291 0.0 2.0 0.00 0.00 0.00 87 1015.9
20260904120542 79 241 2.0 3.0 0.00 0.00 0.00 87 1015.7
20260904120037 79 298 0.0 3.0 0.00 0.00 0.00 87 1015.9
20260904115532 79 311 1.0 2.0 0.00 0.00 0.00 88 1015.8
20260904115027 79 273 0.0 2.0 0.00 0.00 0.00 88 1015.8
20260904114521 78 0 0.0 2.0 0.00 0.00 0.00 89 1015.7
20260904114016 78 209 0.0 2.0 0.00 0.00 0.00 90 1015.6
20260904113516 78 220 2.0 3.0 0.00 0.00 0.00 90 1015.7
20260904113010 77 217 0.0 1.0 0.00 0.00 0.00 92 1015.5
20260904112505 76 309 0.0 1.0 0.00 0.00 0.00 94 1015.6
20260904112001 76 315 1.0 1.0 0.00 0.00 0.00 94 1015.6
20260904111456 76 293 0.0 1.0 0.00 0.00 0.00 95 1015.8
20260904110952 76 269 0.0 1.0 0.00 0.00 0.00 95 1015.7
20260904110451 76 344 0.0 1.0 0.00 0.00 0.00 95 1015.5
20260904105940 75 322 0.0 1.0 0.00 0.00 0.00 95 1015.6
20260904105435 75 336 0.0 0.0 0.00 0.00 0.00 95 1015.4
20260904104925 75 322 0.0 0.0 0.00 0.00 0.00 95 1015.5
20260904104424 75 322 0.0 0.0 0.00 0.00 0.00 95 1015.5
20260904103921 75 333 0.0 0.0 0.00 0.00 0.00 95 1015.5
20260904103416 75 310 0.0 1.0 0.00 0.00 0.00 95 1015.6
20260904102913 75 326 0.0 0.0 0.00 0.00 0.00 95 1015.3
20260904102408 75 318 0.0 1.0 0.00 0.00 0.00 94 1015.6
20260904101904 75 313 0.0 1.0 0.00 0.00 0.00 94 1015.4
20260904101400 75 343 0.0 1.0 0.00 0.00 0.00 94 1015.6
20260904100855 75 321 0.0 1.0 0.00 0.00 0.00 93 1015.5
20260904100351 75 343 0.0 0.0 0.00 0.00 0.00 93 1015.5
20260904095845 75 352 0.0 1.0 0.00 0.00 0.00 93 1015.5
20260904095340 75 0 0.0 1.0 0.00 0.00 0.00 92 1015.4
20260904094835 75 6 0.0 1.0 0.00 0.00 0.00 92 1015.5
20260904094330 76 343 0.0 0.0 0.00 0.00 0.00 92 1015.4
20260904093826 76 246 0.0 0.0 0.00 0.00 0.00 92 1015.5
20260904093321 76 303 0.0 1.0 0.00 0.00 0.00 91 1015.5
20260904092816 76 293 0.0 0.0 0.00 0.00 0.00 91 1015.6
20260904092313 76 309 0.0 1.0 0.00 0.00 0.00 90 1015.6
20260904091808 76 322 0.0 0.0 0.00 0.00 0.00 90 1015.7
20260904091303 76 242 0.0 1.0 0.00 0.00 0.00 90 1015.8
20260904090758 76 329 0.0 1.0 0.00 0.00 0.00 89 1015.9
20260904090254 76 297 0.0 1.0 0.00 0.00 0.00 89 1015.7
20260904085749 77 304 0.0 0.0 0.00 0.00 0.00 89 1015.7
20260904085244 77 230 0.0 1.0 0.00 0.00 0.00 89 1015.8
20260904084738 77 309 0.0 1.0 0.00 0.00 0.00 89 1015.9
20260904084234 77 306 1.0 1.0 0.00 0.00 0.00 88 1015.7
20260904083730 77 291 1.0 2.0 0.00 0.00 0.00 88 1016.1
20260904083227 77 304 0.0 1.0 0.00 0.00 0.00 88 1015.8
20260904082727 77 298 1.0 2.0 0.00 0.00 0.00 88 1015.6
20260904082222 77 332 0.0 1.0 0.00 0.00 0.00 87 1015.6
20260904081717 77 293 0.0 0.0 0.00 0.00 0.00 87 1015.4
20260904081213 77 311 0.0 2.0 0.00 0.00 0.00 87 1015.3
20260904080709 77 310 1.0 1.0 0.00 0.00 0.00 87 1015.3
20260904080204 77 326 0.0 1.0 0.00 0.00 0.00 87 1015.3
20260904075700 78 328 1.0 2.0 0.00 0.00 0.00 87 1015.4
20260904075154 78 281 0.0 1.0 0.00 0.00 0.00 87 1015.3
20260904074648 78 297 0.0 1.0 0.00 0.00 0.00 87 1015.4
20260904074143 78 313 1.0 2.0 0.00 0.00 0.00 87 1015.4
20260904073638 78 295 0.0 1.0 0.00 0.00 0.00 86 1015.4
20260904073135 78 324 0.0 1.0 0.00 0.00 0.00 85 1015.3
20260904072630 79 344 0.0 1.0 0.00 0.00 0.00 85 1015.3
20260904072125 79 311 1.0 2.0 0.00 0.00 0.00 85 1015.0
20260904071621 79 316 0.0 1.0 0.00 0.00 0.00 85 1015.2
20260904071115 79 333 0.0 1.0 0.00 0.00 0.00 84 1015.2
20260904070614 79 205 0.0 0.0 0.00 0.00 0.00 84 1014.9
20260904070109 79 322 0.0 1.0 0.00 0.00 0.00 84 1015.0
20260904065604 79 333 0.0 0.0 0.00 0.00 0.00 84 1015.0
20260904065101 80 322 0.0 0.0 0.00 0.00 0.00 83 1015.2
20260904064556 80 22 0.0 0.0 0.00 0.00 0.00 83 1015.2
20260904064055 80 309 1.0 2.0 0.00 0.00 0.00 83 1015.3
20260904063552 80 307 2.0 2.0 0.00 0.00 0.00 82 1015.3
20260904063047 80 299 1.0 2.0 0.00 0.00 0.00 82 1015.4
20260904062543 80 318 0.0 2.0 0.00 0.00 0.00 82 1015.4
20260904062038 81 307 2.0 2.0 0.00 0.00 0.00 81 1015.6
20260904061534 81 133 0.0 2.0 0.00 0.00 0.00 81 1015.5
20260904061031 81 296 1.0 2.0 0.00 0.00 0.00 82 1015.9
20260904060527 81 245 0.0 4.0 0.00 0.00 0.00 83 1015.9
20260904060022 82 296 0.0 2.0 0.00 0.00 0.00 85 1016.3
20260904055517 82 311 3.0 3.0 0.00 0.00 0.00 84 1016.3
20260904055012 82 23 2.0 2.0 0.00 0.00 0.00 84 1016.4
20260904054508 82 309 0.0 9.0 0.00 0.00 0.00 86 1016.3
20260904054004 82 301 1.0 2.0 0.00 0.00 0.00 84 1015.8
20260904053503 82 333 0.0 1.0 0.00 0.00 0.00 83 1015.5
20260904052959 82 304 0.0 2.0 0.00 0.00 0.00 83 1015.3
20260904052455 83 242 0.0 1.0 0.00 0.00 0.00 82 1015.3
20260904051951 83 265 1.0 2.0 0.00 0.00 0.00 81 1015.2
20260904051448 83 212 1.0 2.0 0.00 0.00 0.00 81 1015.3
20260904050946 83 249 1.0 2.0 0.00 0.00 0.00 81 1015.4
20260904050443 83 219 1.0 2.0 0.00 0.00 0.00 81 1015.5
20260904045938 83 309 0.0 2.0 0.00 0.00 0.00 81 1015.7
20260904045432 83 335 0.0 1.0 0.00 0.00 0.00 81 1015.6
20260904044927 83 261 0.0 1.0 0.00 0.00 0.00 82 1015.7
20260904044423 82 315 0.0 1.0 0.00 0.00 0.00 82 1015.7
20260904043919 83 327 0.0 1.0 0.00 0.00 0.00 82 1015.6
20260904043416 83 333 0.0 1.0 0.00 0.00 0.00 82 1015.8
20260904042911 83 306 1.0 1.0 0.00 0.00 0.00 81 1015.6
20260904042407 83 261 0.0 0.0 0.00 0.00 0.00 81 1015.8
20260904041902 83 214 0.0 1.0 0.00 0.00 0.00 80 1015.7
20260904041358 83 231 0.0 1.0 0.00 0.00 0.00 81 1015.7
20260904040854 83 289 0.0 1.0 0.00 0.00 0.00 81 1015.6
20260904040348 84 306 0.0 2.0 0.00 0.00 0.00 80 1015.9
20260904035844 84 303 1.0 1.0 0.00 0.00 0.00 80 1015.7
20260904035341 84 309 0.0 1.0 0.00 0.00 0.00 80 1016.1
20260904034839 84 255 0.0 2.0 0.00 0.00 0.00 80 1015.9
20260904034335 84 304 0.0 1.0 0.00 0.00 0.00 81 1015.6
20260904033831 84 333 0.0 1.0 0.00 0.00 0.00 81 1015.8
20260904033327 84 322 0.0 2.0 0.00 0.00 0.00 81 1015.9
20260904032822 84 254 1.0 1.0 0.00 0.00 0.00 80 1016.2
20260904032317 84 305 1.0 1.0 0.00 0.00 0.00 82 1016.1
20260904031811 84 326 0.0 2.0 0.00 0.00 0.00 82 1016.2
20260904031306 83 315 1.0 1.0 0.00 0.00 0.00 83 1016.2
20260904030802 84 320 1.0 1.0 0.00 0.00 0.00 82 1015.9
20260904030258 84 335 2.0 2.0 0.00 0.00 0.00 82 1016.1
20260904025753 84 326 0.0 2.0 0.00 0.00 0.00 81 1015.9
20260904025248 84 299 0.0 1.0 0.00 0.00 0.00 83 1015.8
20260904024738 84 290 2.0 2.0 0.00 0.00 0.00 82 1015.9
20260904024233 84 293 0.0 1.0 0.00 0.00 0.00 83 1015.9
20260904023730 83 345 0.0 1.0 0.00 0.00 0.00 85 1016.1
20260904023225 83 340 1.0 1.0 0.00 0.00 0.00 85 1015.8
20260904022724 83 312 1.0 1.0 0.00 0.00 0.00 85 1015.9
20260904022221 83 329 0.0 2.0 0.00 0.00 0.00 85 1015.6
20260904021712 83 304 1.0 2.0 0.00 0.00 0.00 85 1015.8
20260904021207 83 340 0.0 2.0 0.00 0.00 0.00 86 1015.6
20260904020703 83 323 0.0 1.0 0.00 0.00 0.00 86 1015.5
20260904020202 83 335 0.0 1.0 0.00 0.00 0.00 86 1016.1
20260904015701 83 315 1.0 1.0 0.00 0.00 0.00 85 1015.8
20260904015201 83 288 0.0 1.0 0.00 0.00 0.00 85 1016.2
20260904014659 83 319 1.0 1.0 0.00 0.00 0.00 86 1016.1
20260904014155 84 306 0.0 1.0 0.00 0.00 0.00 85 1016.2
20260904013652 84 297 0.0 0.0 0.00 0.00 0.00 86 1016.3
20260904013147 84 299 0.0 2.0 0.00 0.00 0.00 86 1016.2
20260904012643 84 294 0.0 1.0 0.00 0.00 0.00 86 1016.1
20260904012141 83 309 0.0 1.0 0.00 0.00 0.00 86 1016.3
20260904011641 84 318 0.0 1.0 0.00 0.00 0.00 87 1016.4
20260904011137 84 309 0.0 0.0 0.00 0.00 0.00 87 1016.3
20260904010632 84 322 0.0 1.0 0.00 0.00 0.00 87 1016.5
20260904010129 84 310 0.0 1.0 0.00 0.00 0.00 87 1016.7
20260904005624 84 309 0.0 1.0 0.00 0.00 0.00 87 1016.4
20260904005119 84 286 1.0 2.0 0.00 0.00 0.00 87 1016.6
20260904004615 84 292 0.0 1.0 0.00 0.00 0.00 87 1016.6
20260904004114 84 297 0.0 0.0 0.00 0.00 0.00 87 1016.7
20260904003611 84 295 1.0 2.0 0.00 0.00 0.00 87 1016.6
20260904003106 84 316 0.0 1.0 0.00 0.00 0.00 86 1016.5
20260904002602 85 315 0.0 1.0 0.00 0.00 0.00 85 1016.6
20260904002056 85 321 0.0 1.0 0.00 0.00 0.00 85 1016.5
20260904001552 85 309 1.0 2.0 0.00 0.00 0.00 85 1016.2
20260904001051 85 318 0.0 2.0 0.00 0.00 0.00 84 1016.2
20260904000545 85 301 0.0 2.0 0.00 0.00 0.00 84 1016.2
20260904000041 85 298 1.0 1.0 0.00 0.00 0.00 84 1015.9
20260903235536 86 309 0.0 1.0 0.00 0.00 0.00 83 1015.6
20260903235032 86 299 0.0 2.0 0.00 0.00 0.00 83 1015.8
20260903234527 86 305 2.0 2.0 0.00 0.00 0.00 81 1015.6
20260903234022 87 317 1.0 1.0 0.00 0.00 0.00 81 1015.6
20260903233518 87 318 1.0 2.0 0.00 0.00 0.00 80 1015.5
20260903233014 87 334 1.0 2.0 0.00 0.00 0.00 80 1015.6
20260903232509 87 318 2.0 2.0 0.00 0.00 0.00 80 1015.9
20260903232009 87 326 2.0 2.0 0.00 0.00 0.00 79 1015.8
20260903231503 88 304 1.0 2.0 0.00 0.00 0.00 78 1015.7
20260903230957 88 314 2.0 2.0 0.00 0.00 0.00 78 1015.5
20260903230453 88 313 1.0 2.0 0.00 0.00 0.00 78 1015.3
20260903225950 88 315 2.0 2.0 0.00 0.00 0.00 78 1015.5
20260903225445 88 310 0.0 2.0 0.00 0.00 0.00 77 1015.6
20260903224941 88 334 0.0 1.0 0.00 0.00 0.00 76 1015.3
20260903224437 88 304 0.0 2.0 0.00 0.00 0.00 76 1015.3
20260903223933 88 333 0.0 1.0 0.00 0.00 0.00 76 1015.4
20260903223432 88 327 0.0 2.0 0.00 0.00 0.00 76 1015.3
20260903222931 87 313 1.0 2.0 0.00 0.00 0.00 75 1015.3
20260903222427 88 322 0.0 1.0 0.00 0.00 0.00 74 1015.3
20260903221920 88 303 1.0 1.0 0.00 0.00 0.00 73 1015.3
20260903221420 88 301 1.0 2.0 0.00 0.00 0.00 72 1015.4
20260903220918 89 332 1.0 2.0 0.00 0.00 0.00 72 1015.4
20260903220412 89 323 1.0 1.0 0.00 0.00 0.00 70 1015.5
20260903215909 89 311 1.0 2.0 0.00 0.00 0.00 69 1015.6
20260903215407 90 318 1.0 2.0 0.00 0.00 0.00 68 1015.6
20260903214904 90 310 2.0 2.0 0.00 0.00 0.00 67 1015.4
20260903214401 91 312 2.0 2.0 0.00 0.00 0.00 67 1015.5
20260903213900 91 293 0.0 2.0 0.00 0.00 0.00 66 1015.7
20260903213355 91 312 1.0 2.0 0.00 0.00 0.00 64 1015.7
20260903212851 91 301 2.0 2.0 0.00 0.00 0.00 63 1015.6
20260903212348 92 297 2.0 2.0 0.00 0.00 0.00 63 1015.6
20260903211847 92 306 0.0 2.0 0.00 0.00 0.00 65 1015.3
20260903211343 92 269 1.0 2.0 0.00 0.00 0.00 61 1015.7
20260903210839 93 284 1.0 3.0 0.00 0.00 0.00 63 1015.7
20260903210333 93 319 0.0 2.0 0.00 0.00 0.00 65 1015.7
20260903205833 92 307 2.0 2.0 0.00 0.00 0.00 68 1015.8
20260903205333 93 323 1.0 2.0 0.00 0.00 0.00 65 1015.9
20260903204828 93 310 0.0 2.0 0.00 0.00 0.00 65 1015.6
20260903204324 93 317 1.0 2.0 0.00 0.00 0.00 65 1015.8
20260903203819 93 299 2.0 2.0 0.00 0.00 0.00 63 1015.7
20260903203315 93 305 2.0 2.0 0.00 0.00 0.00 65 1015.8
20260903202814 93 307 0.0 2.0 0.00 0.00 0.00 61 1016.1
20260903202311 93 315 1.0 2.0 0.00 0.00 0.00 64 1016.1
20260903201810 93 355 1.0 2.0 0.00 0.00 0.00 62 1016.4
20260903201305 94 305 2.0 2.0 0.00 0.00 0.00 67 1016.3
20260903200803 93 326 0.0 1.0 0.00 0.00 0.00 63 1016.3
20260903200259 93 253 0.0 1.0 0.00 0.00 0.00 62 1016.5
20260903195754 93 325 3.0 3.0 0.00 0.00 0.00 62 1016.5
20260903195250 93 319 1.0 2.0 0.00 0.00 0.00 64 1016.5
20260903194745 93 300 2.0 2.0 0.00 0.00 0.00 64 1016.6
20260903194241 94 283 1.0 3.0 0.00 0.00 0.00 59 1016.6
20260903193736 93 324 2.0 2.0 0.00 0.00 0.00 61 1016.8
20260903193232 93 308 2.0 2.0 0.00 0.00 0.00 62 1016.8
20260903192728 93 323 2.0 2.0 0.00 0.00 0.00 61 1017.0
20260903192223 93 289 2.0 3.0 0.00 0.00 0.00 61 1016.7
20260903191719 93 308 1.0 3.0 0.00 0.00 0.00 63 1016.9
20260903191214 93 339 0.0 2.0 0.00 0.00 0.00 66 1016.8
20260903190703 93 328 2.0 2.0 0.00 0.00 0.00 68 1017.1
20260903190203 93 355 1.0 3.0 0.00 0.00 0.00 64 1017.2
20260903185658 94 315 0.0 2.0 0.00 0.00 0.00 65 1017.2
20260903185153 94 222 2.0 2.0 0.00 0.00 0.00 64 1017.4
20260903184649 94 305 2.0 3.0 0.00 0.00 0.00 68 1017.2
20260903184145 94 314 0.0 2.0 0.00 0.00 0.00 66 1017.4
20260903183644 94 217 1.0 2.0 0.00 0.00 0.00 65 1017.4
20260903183139 93 285 2.0 4.0 0.00 0.00 0.00 68 1017.5
20260903182638 93 281 1.0 3.0 0.00 0.00 0.00 67 1017.5
20260903182134 94 294 2.0 2.0 0.00 0.00 0.00 66 1017.6
20260903181632 94 319 2.0 2.0 0.00 0.00 0.00 67 1017.6
20260903181127 93 297 2.0 4.0 0.00 0.00 0.00 67 1017.6
20260903180622 94 288 2.0 3.0 0.00 0.00 0.00 68 1017.8
20260903180116 93 293 0.0 2.0 0.00 0.00 0.00 69 1017.8
20260903175615 92 214 0.0 2.0 0.00 0.00 0.00 71 1018.1
20260903175115 92 301 2.0 3.0 0.00 0.00 0.00 71 1018.2
20260903174610 92 229 2.0 3.0 0.00 0.00 0.00 70 1018.1
20260903174105 91 306 4.0 4.0 0.00 0.00 0.00 71 1018.2
20260903173559 92 326 0.0 1.0 0.00 0.00 0.00 71 1018.1
20260903173056 91 269 0.0 2.0 0.00 0.00 0.00 71 1018.3
20260903172550 91 257 0.0 2.0 0.00 0.00 0.00 72 1018.3
20260903172046 91 296 1.0 2.0 0.00 0.00 0.00 73 1018.2
20260903171540 90 297 0.0 3.0 0.00 0.00 0.00 74 1018.5